Regional Weather Roundup
Issued by NWS

Home | Current Version | Previous Version | Graphics & Text | Print | Product List | Glossary On
Versions: 1 2 3 4 5 6 7 8 9 10 11 12 13 14 15 16 17 18 19 20 21 22 23 24 25 26 27
000
ASUS45 KCYS 271610
RWRWY

WYOMING REGIONAL WEATHER ROUNDUP
NATIONAL WEATHER SERVICE CHEYENNE WY
1000 AM MDT FRI MAY 27 2016

NOTE:  "FAIR" INDICATES FEW OR NO CLOUDS BELOW 12,000 FEET
WITH NO SIGNIFICANT WEATHER AND/OR OBSTRUCTIONS TO VISIBILITY.

WYZ001-271700-
YELLOWSTONE NATIONAL PARK

CITY           SKY/WX    TMP DP  RH WIND       PRES   REMARKS
LK YELLOWSTONE   N/A     40  37  89 CALM      30.06F
W YELLOWSTONE  NOT AVBL

$$
WYZ002>013-054>058-071-098>099-271700-
NORTHERN WYOMING

CITY           SKY/WX    TMP DP  RH WIND       PRES   REMARKS
JACKSON        MOSUNNY   48  39  71 S6        30.00F
CODY           FAIR      59  37  44 S15       29.91F
GREYBULL       FAIR      58  44  60 CALM      29.91F
WORLAND        FAIR      57  46  66 W5        29.91F
SHERIDAN       FAIR      60  46  59 VRB3      29.89F
BUFFALO        FAIR      58  39  49 VRB5      29.92F
GILLETTE       FAIR      58  43  57 NW12      29.90S
HULETT         PTSUNNY   55  45  67 W8        29.90F
NEWCASTLE      FAIR      59  37  44 NW8       29.90S

$$
WYZ014>020-022>026-101>103-271700-
CENTRAL WYOMING

CITY           SKY/WX    TMP DP  RH WIND       PRES   REMARKS
BIG PINEY      FAIR      52  35  52 CALM      30.03F
PINEDALE       PTSUNNY   50  36  57 CALM      30.04F
DUBOIS         PTSUNNY   54  30  40 W8        29.98F
LANDER         FAIR      56  40  55 E5        29.94F
RIVERTON       FAIR      56  39  53 VRB6      29.96F
CASPER         FAIR      58  39  49 VRB6      29.94F
DOUGLAS          N/A    N/A N/A N/A MISG      29.94S

$$
WYZ021-027>030-104>119-271700-
SOUTHERN WYOMING

CITY           SKY/WX    TMP DP  RH WIND       PRES   REMARKS
EVANSTON       FAIR      51  35  54 VRB3      30.05S
KEMMERER         N/A     52  36  54 W6        30.04F
FORT BRIDGER   PTSUNNY   54  39  58 W9        30.06S
ROCK SPRINGS   FAIR      49  39  68 SW7       30.02F
DIXON          PTSUNNY   51  40  66 SW3       30.03S
RAWLINS        FAIR      51  35  54 W3        30.00S
SARATOGA       FAIR      50  37  62 NW7       30.01S
LARAMIE        FAIR      50  35  56 NW14      29.97F
CHEYENNE       PTSUNNY   52  38  58 N14G24    29.92F
TORRINGTON     FAIR      58  41  53 N10       29.88S
PINE BLUFFS    FAIR      54  45  71 N17G23    29.90S

$$




USA.gov is the U.S. government's official web portal to all federal, state and local government web resources and services.